TimeMST,TemperatureF,Dew PointF,Humidity,Sea Level PressureIn,VisibilityMPH,Wind Direction,Wind SpeedMPH,Gust SpeedMPH,PrecipitationIn,Events,Conditions,WindDirDegrees,DateUTC
12:15 AM,45.7,13.1,27,30.06,10.0,SSW,8.1,-,N/A,,Clear,210,2012-12-03 07:15:00
12:35 AM,41.7,11.3,29,30.05,10.0,SSW,6.9,-,N/A,,Clear,200,2012-12-03 07:35:00
12:55 AM,40.6,11.3,30,30.05,10.0,South,3.5,-,N/A,,Clear,190,2012-12-03 07:55:00
1:15 AM,42.3,10.8,28,30.05,10.0,West,8.1,-,N/A,,Clear,270,2012-12-03 08:15:00
1:35 AM,39.6,11.1,31,30.07,10.0,East,4.6,-,N/A,,Clear,90,2012-12-03 08:35:00
1:55 AM,39.6,11.7,32,30.06,10.0,Calm,Calm,-,N/A,,Clear,0,2012-12-03 08:55:00
2:15 AM,38.1,12.0,34,30.07,10.0,NE,6.9,-,N/A,,Clear,50,2012-12-03 09:15:00
2:35 AM,39.2,12.0,33,30.06,10.0,Calm,Calm,-,N/A,,Clear,0,2012-12-03 09:35:00
2:55 AM,37.4,11.5,34,30.06,10.0,ENE,6.9,-,N/A,,Clear,70,2012-12-03 09:55:00
3:15 AM,38.1,11.5,33,30.06,10.0,Calm,Calm,-,N/A,,Clear,0,2012-12-03 10:15:00
3:35 AM,36.9,11.1,35,30.07,10.0,NNE,3.5,-,N/A,,Clear,20,2012-12-03 10:35:00
3:55 AM,37.0,11.3,35,30.07,10.0,Calm,Calm,-,N/A,,Clear,0,2012-12-03 10:55:00
4:15 AM,38.8,11.1,32,30.07,10.0,North,4.6,-,N/A,,Clear,350,2012-12-03 11:15:00
4:35 AM,41.9,10.9,28,30.07,10.0,Calm,Calm,-,N/A,,Clear,0,2012-12-03 11:35:00
4:55 AM,41.7,11.3,29,30.07,10.0,Calm,Calm,-,N/A,,Clear,0,2012-12-03 11:55:00
5:15 AM,37.8,12.0,35,30.07,10.0,Calm,Calm,-,N/A,,Scattered Clouds,0,2012-12-03 12:15:00
5:35 AM,42.4,14.4,32,30.09,10.0,Calm,Calm,-,N/A,,Scattered Clouds,0,2012-12-03 12:35:00
5:55 AM,41.9,14.4,33,30.09,10.0,Calm,Calm,-,N/A,,Clear,0,2012-12-03 12:55:00
6:15 AM,41.4,15.4,35,30.10,10.0,Calm,Calm,-,N/A,,Clear,0,2012-12-03 13:15:00
6:35 AM,41.7,16.0,35,30.11,10.0,SSW,3.5,-,N/A,,Clear,210,2012-12-03 13:35:00
6:55 AM,45.0,19.8,37,30.12,10.0,West,12.7,-,N/A,,Clear,280,2012-12-03 13:55:00
7:15 AM,50.7,24.6,36,30.12,10.0,West,13.8,-,N/A,,Clear,270,2012-12-03 14:15:00
7:35 AM,53.2,27.0,36,30.12,10.0,West,23.0,31.1,N/A,,Clear,280,2012-12-03 14:35:00
7:55 AM,53.6,27.0,36,30.12,10.0,West,20.7,28.8,N/A,,Clear,280,2012-12-03 14:55:00
8:15 AM,54.5,27.7,36,30.14,10.0,WNW,18.4,34.5,N/A,,Clear,290,2012-12-03 15:15:00
8:35 AM,54.7,29.1,38,30.14,10.0,West,13.8,20.7,N/A,,Clear,270,2012-12-03 15:35:00
8:55 AM,55.8,30.0,37,30.13,10.0,WSW,11.5,-,N/A,,Clear,250,2012-12-03 15:55:00
9:15 AM,57.2,30.7,37,30.12,10.0,WSW,9.2,-,N/A,,Clear,250,2012-12-03 16:15:00
9:35 AM,57.7,31.6,37,30.13,10.0,West,15.0,-,N/A,,Clear,270,2012-12-03 16:35:00
9:55 AM,58.3,32.0,37,30.14,10.0,WNW,16.1,-,N/A,,Clear,290,2012-12-03 16:55:00
10:15 AM,59.9,32.0,35,30.14,10.0,West,16.1,-,N/A,,Clear,280,2012-12-03 17:15:00
10:35 AM,60.8,31.8,34,30.13,10.0,West,17.3,23.0,N/A,,Clear,280,2012-12-03 17:35:00
10:55 AM,61.9,31.8,32,30.13,10.0,West,16.1,24.2,N/A,,Clear,280,2012-12-03 17:55:00
11:15 AM,62.4,31.5,31,30.13,10.0,West,12.7,20.7,N/A,,Clear,280,2012-12-03 18:15:00
11:35 AM,63.3,31.1,30,30.11,10.0,West,12.7,17.3,N/A,,Clear,280,2012-12-03 18:35:00
11:55 AM,63.7,30.4,29,30.11,10.0,WNW,10.4,18.4,N/A,,Clear,290,2012-12-03 18:55:00
12:15 PM,63.9,30.9,29,30.10,10.0,West,11.5,16.1,N/A,,Clear,280,2012-12-03 19:15:00
12:35 PM,64.4,30.7,28,30.10,10.0,WNW,11.5,20.7,N/A,,Clear,290,2012-12-03 19:35:00
12:55 PM,65.1,30.6,27,30.10,10.0,NW,16.1,-,N/A,,Clear,310,2012-12-03 19:55:00
1:15 PM,65.1,30.2,27,30.10,10.0,NW,12.7,20.7,N/A,,Clear,310,2012-12-03 20:15:00
1:35 PM,65.7,30.6,27,30.10,10.0,WNW,13.8,18.4,N/A,,Clear,300,2012-12-03 20:35:00
1:55 PM,65.7,30.4,27,30.09,10.0,West,12.7,19.6,N/A,,Clear,280,2012-12-03 20:55:00
2:15 PM,65.7,30.0,26,30.09,10.0,West,12.7,-,N/A,,Clear,280,2012-12-03 21:15:00
2:35 PM,65.7,30.0,26,30.09,10.0,West,9.2,-,N/A,,Clear,280,2012-12-03 21:35:00
2:55 PM,65.5,29.7,26,30.09,10.0,WNW,10.4,19.6,N/A,,Clear,300,2012-12-03 21:55:00
3:15 PM,64.6,30.6,28,30.09,10.0,WNW,11.5,-,N/A,,Clear,290,2012-12-03 22:15:00
3:35 PM,64.2,29.5,27,30.09,10.0,WNW,12.7,-,N/A,,Clear,290,2012-12-03 22:35:00
3:55 PM,62.8,28.6,27,30.10,10.0,West,12.7,-,N/A,,Clear,280,2012-12-03 22:55:00
4:15 PM,63.5,28.0,26,30.11,10.0,West,12.7,17.3,N/A,,Clear,280,2012-12-03 23:15:00
4:35 PM,62.2,28.0,27,30.11,10.0,WNW,13.8,-,N/A,,Clear,290,2012-12-03 23:35:00
4:55 PM,60.4,28.0,29,30.12,10.0,WNW,9.2,-,N/A,,Clear,290,2012-12-03 23:55:00
5:15 PM,56.5,27.5,33,30.12,10.0,WNW,5.8,-,N/A,,Clear,290,2012-12-04 00:15:00
5:35 PM,53.1,26.4,36,30.14,10.0,West,5.8,-,N/A,,Clear,280,2012-12-04 00:35:00
5:55 PM,52.3,26.4,37,30.14,10.0,West,9.2,-,N/A,,Clear,280,2012-12-04 00:55:00
6:15 PM,50.5,26.8,40,30.15,10.0,NW,11.5,-,N/A,,Clear,320,2012-12-04 01:15:00
6:35 PM,51.6,27.7,40,30.16,10.0,NW,10.4,-,N/A,,Clear,320,2012-12-04 01:35:00
6:55 PM,51.3,27.7,40,30.16,10.0,NW,4.6,-,N/A,,Clear,320,2012-12-04 01:55:00
7:15 PM,49.5,27.3,42,30.17,10.0,North,3.5,-,N/A,,Clear,360,2012-12-04 02:15:00
7:35 PM,49.6,27.1,42,30.18,10.0,Calm,Calm,-,N/A,,Clear,0,2012-12-04 02:35:00
7:55 PM,47.3,26.6,45,30.19,10.0,WNW,5.8,-,N/A,,Clear,290,2012-12-04 02:55:00
8:15 PM,47.1,26.8,45,30.19,10.0,NW,3.5,-,N/A,,Clear,320,2012-12-04 03:15:00
8:35 PM,44.6,26.2,49,30.20,10.0,NNE,3.5,-,N/A,,Clear,30,2012-12-04 03:35:00
8:55 PM,48.6,27.3,44,30.20,10.0,North,4.6,-,N/A,,Clear,360,2012-12-04 03:55:00
9:15 PM,45.5,26.6,48,30.20,10.0,NNW,6.9,-,N/A,,Clear,340,2012-12-04 04:15:00
9:35 PM,44.8,27.3,50,30.20,10.0,North,5.8,-,N/A,,Clear,350,2012-12-04 04:35:00
9:55 PM,44.1,27.5,52,30.21,10.0,NW,8.1,-,N/A,,Clear,320,2012-12-04 04:55:00
10:15 PM,45.7,29.3,53,30.22,10.0,NNW,9.2,-,N/A,,Clear,340,2012-12-04 05:15:00
10:35 PM,45.1,29.8,55,30.23,10.0,NNW,8.1,-,N/A,,Clear,340,2012-12-04 05:35:00
10:55 PM,46.2,30.2,54,30.23,10.0,NNW,8.1,-,N/A,,Clear,330,2012-12-04 05:55:00
11:15 PM,43.7,29.3,57,30.25,10.0,NE,4.6,-,N/A,,Clear,50,2012-12-04 06:15:00
11:35 PM,45.1,30.6,57,30.25,10.0,NNW,6.9,-,N/A,,Clear,330,2012-12-04 06:35:00
11:55 PM,44.8,31.1,59,30.25,10.0,NNE,10.4,-,N/A,,Clear,20,2012-12-04 06:55:00